TimeMST,TemperatureF,Dew PointF,Humidity,Sea Level PressureIn,VisibilityMPH,Wind Direction,Wind SpeedMPH,Gust SpeedMPH,PrecipitationIn,Events,Conditions,WindDirDegrees,DateUTC
12:57 AM,84.9,68.0,57,29.78,10.0,North,3.5,-,N/A,,Scattered Clouds,350,2013-08-27 07:57:00
1:57 AM,84.9,66.9,55,29.76,10.0,North,6.9,-,N/A,,Scattered Clouds,350,2013-08-27 08:57:00
2:57 AM,84.9,66.0,53,29.76,10.0,North,8.1,-,N/A,,Scattered Clouds,10,2013-08-27 09:57:00
3:57 AM,84.9,66.0,53,29.76,10.0,NE,9.2,-,N/A,,Scattered Clouds,40,2013-08-27 10:57:00
4:57 AM,82.0,68.0,62,29.76,10.0,North,4.6,-,N/A,,Scattered Clouds,10,2013-08-27 11:57:00
5:57 AM,82.0,66.9,60,29.77,10.0,North,3.5,-,N/A,,Scattered Clouds,360,2013-08-27 12:57:00
6:57 AM,82.9,68.0,60,29.78,10.0,NNE,6.9,-,N/A,,Mostly Cloudy,30,2013-08-27 13:57:00
7:57 AM,84.9,68.0,57,29.79,10.0,NNE,8.1,-,N/A,,Mostly Cloudy,20,2013-08-27 14:57:00
8:57 AM,89.1,68.0,50,29.79,10.0,North,8.1,-,N/A,,Scattered Clouds,360,2013-08-27 15:57:00
9:57 AM,91.9,66.9,44,29.79,10.0,ENE,6.9,-,N/A,,Scattered Clouds,60,2013-08-27 16:57:00
10:57 AM,93.9,64.9,38,29.78,10.0,Variable,3.5,-,N/A,,Scattered Clouds,0,2013-08-27 17:57:00
11:57 AM,97.0,63.0,32,29.76,10.0,Calm,Calm,-,N/A,,Partly Cloudy,0,2013-08-27 18:57:00
12:57 PM,99.0,63.0,30,29.75,10.0,Variable,4.6,-,N/A,,Scattered Clouds,0,2013-08-27 19:57:00
1:57 PM,100.9,62.1,28,29.72,10.0,Calm,Calm,-,N/A,,Scattered Clouds,0,2013-08-27 20:57:00
2:57 PM,100.9,61.0,27,29.70,10.0,South,3.5,-,N/A,,Scattered Clouds,190,2013-08-27 21:57:00
3:57 PM,102.9,62.1,26,29.68,10.0,Variable,6.9,-,N/A,,Scattered Clouds,0,2013-08-27 22:57:00
4:57 PM,102.0,62.1,27,29.66,10.0,South,8.1,-,N/A,,Scattered Clouds,170,2013-08-27 23:57:00
5:57 PM,100.9,63.0,29,29.65,10.0,SSW,6.9,-,N/A,,Scattered Clouds,210,2013-08-28 00:57:00
6:57 PM,99.0,64.9,33,29.65,10.0,WSW,10.4,-,N/A,,Scattered Clouds,250,2013-08-28 01:57:00
7:57 PM,96.1,66.9,38,29.67,10.0,West,10.4,-,N/A,,Scattered Clouds,260,2013-08-28 02:57:00
8:57 PM,93.9,68.0,43,29.69,10.0,West,9.2,-,N/A,,Partly Cloudy,270,2013-08-28 03:57:00
9:57 PM,93.0,68.0,44,29.70,10.0,WNW,5.8,-,N/A,,Partly Cloudy,300,2013-08-28 04:57:00
10:57 PM,91.9,68.0,45,29.69,10.0,WNW,4.6,-,N/A,,Partly Cloudy,290,2013-08-28 05:57:00
11:57 PM,91.0,68.0,47,29.69,10.0,WNW,3.5,-,N/A,,Partly Cloudy,290,2013-08-28 06:57:00